Terminal Aerodrome Forecast
Issued by NWS Rapid City, SD

Home | Current Version | Previous Version | Graphics & Text | Print | Product List | Glossary On
Versions: 1 2 3 4 5 6 7 8 9 10 11 12 13 14 15 16
000
FTUS43 KUNR 271120
TAFRAP
TAF
KRAP 271120Z 2712/2812 14010KT P6SM FEW150
     FM271500 17016KT P6SM FEW150
     FM272200 17017G25KT P6SM VCTS SCT060CB
     FM280300 32022G32KT P6SM SCT100=

USA.gov is the U.S. government's official web portal to all federal, state and local government web resources and services.